YAOGAN-31 G (47691 NORAD) Tracking and Keplerian Element Data

This shows tracking and keplerian element data for the satellite.

Feedback or suggestion? Click here.




ElementValue
Catalog47691
NameYAOGAN-31 G
Epoch Orbit602
Epoch Day99.80410008
Epoch Year2021
RAAN22.6577
Inclination63.4109
Eccentricity0.0010733
Argument of Perigee307.012
Mean Anonmoly52.9929
Mean Motion13.4520768
Decay Rate-9E-07
L11 47691U 21014A 21099.80410008 -.00000090 00000-0 00000-0 0 9997
L22 47691 63.4109 22.6577 0010733 307.0120 52.9929 13.45207680 6028

Live tracking and technical data element details for YAOGAN-31 G (NORAD 47691). YAOGAN-31 G can be tracked NOW for your location showing map with azimuth and elevation plus other details from your city location.

Track the satellite on the map from your city or location and see movement details for azimuth, elevation, latitude, longitude, range, height, and movement on the map or in text.







IsCatalogInMostPopularTable: catalog: 47691, numindb: 15
Update: records affected: 1



GetName: 47691 YAOGAN-31 G

Hit Count: updated at: Sat, 10 Apr 2021 19:28:50 GMT